Biloxi, MS

6:50 PM CST on December 15, 2017 (GMT -0600)
Keesler Air Force Base

Weather History for KBIX - December, 2011

Change the Weather History Date:

Wednesday, December 7, 2011

  Actual Average Record
Temperature  
Mean Temperature 43 °F -  
Max Temperature 48 °F 64 °F 78 °F (1951)
Min Temperature 38 °F 47 °F 28 °F (1984)
Degree Days  
Heating Degree Days 22    
Moisture  
Dew Point 40 °F    
Average Humidity 88    
Maximum Humidity 100    
Minimum Humidity 58    
Precipitation  
Precipitation 0.09 in - - ()
Sea Level Pressure  
Sea Level Pressure 30.17 in    
Wind  
Wind Speed 12 mph (NW)    
Max Wind Speed 18 mph    
Max Gust Speed 25 mph    
Visibility 10 miles    
Events Rain    
Averages and records for this station are not official NWS values.
T = Trace of Precipitation, MM = Missing Value Source: NWS Daily Summary

Daily Weather History Graph

Daily Weather History Graph

Search for Another Location

Airport or City:

Trip Planner

Search our weather history database for the weather conditions in past years. The results will help you decide how hot, cold, wet, or windy it might be!

Date:

Astronomy

Dec. 07, 2011 Rise Set
Actual Time 6:39 AM CST 4:54 PM CST
Civil Twilight 6:12 AM CST 5:21 PM CST
Nautical Twilight 5:43 AM CST 5:50 PM CST
Astronomical Twilight 5:13 AM CST 6:20 PM CST
Moon 2:51 PM CST (12/7) 3:59 AM CST (12/7)
Length of Visible Light 11h 08m
Length of Day
10h 15m
Waxing Gibbous, 92% of the Moon is Illuminated
Dec 7
Waxing Gibbous
Dec 10
Full
Dec 17
Last Quarter
Dec 24
New
Jan 1
First Quarter

Hourly Weather History & Observations

Time (CST) Temp. Windchill Dew Point Humidity Pressure Visibility Wind Dir Wind Speed Gust Speed Precip Events Conditions
12:02 AM 46.4 °F 41.5 °F 46.4 °F 100% 30.09 in 10.0 mi NW 10.4 mph - N/A   Light Drizzle
12:13 AM 46.4 °F 41.5 °F 46.4 °F 100% 30.09 in 7.0 mi NW 10.4 mph - N/A Rain Light Rain
12:16 AM 46.4 °F 41.5 °F 46.4 °F 100% 30.09 in 7.0 mi NW 10.4 mph - N/A Rain Light Rain
12:19 AM 46.4 °F 42.4 °F 46.4 °F 100% 30.09 in 9.0 mi NNW 8.1 mph - N/A Rain Light Rain
12:22 AM 46.4 °F 41.1 °F 46.4 °F 100% 30.09 in 10.0 mi NW 11.5 mph - N/A Rain Light Rain
12:47 AM 46.4 °F 41.5 °F 46.4 °F 100% 30.09 in 5.0 mi NW 10.4 mph - N/A Rain Rain
12:48 AM 46.4 °F 41.5 °F 44.6 °F 93% 30.09 in 5.0 mi NW 10.4 mph - N/A Rain Rain
12:49 AM 46.4 °F 41.1 °F 44.6 °F 93% 30.09 in 5.0 mi NW 11.5 mph - N/A Rain Rain
12:51 AM 46.4 °F 41.1 °F 44.6 °F 93% 30.09 in 6.0 mi NW 11.5 mph - N/A Rain Light Rain
12:53 AM 46.4 °F 40.4 °F 44.6 °F 93% 30.09 in 6.0 mi NW 13.8 mph - N/A Rain Light Rain
12:55 AM 45.7 °F 39.1 °F 45.3 °F 99% 30.09 in 8.0 mi NNW 15.0 mph - 0.06 in Rain Light Rain
12:58 AM 46.4 °F 41.1 °F 44.6 °F 93% 30.09 in 10.0 mi NW 11.5 mph - N/A Rain Light Rain
12:59 AM 46.4 °F 40.7 °F 44.6 °F 93% 30.09 in 10.0 mi NW 12.7 mph - N/A Rain Light Rain
1:19 AM 44.6 °F 38.8 °F 44.6 °F 100% 30.10 in 9.0 mi NW 11.5 mph - N/A Rain Light Rain
1:25 AM 44.6 °F 38.4 °F 44.6 °F 100% 30.09 in 10.0 mi NW 12.7 mph - N/A Rain Light Rain
1:27 AM 44.6 °F 38.4 °F 44.6 °F 100% 30.09 in 10.0 mi NNW 12.7 mph - N/A Rain Light Rain
1:39 AM 44.6 °F 38.8 °F 44.6 °F 100% 30.09 in 10.0 mi NW 11.5 mph - N/A Rain Light Rain
1:44 AM 44.6 °F 38.1 °F 44.6 °F 100% 30.09 in 10.0 mi NW 13.8 mph - N/A Rain Light Rain
1:48 AM 44.6 °F 37.8 °F 44.6 °F 100% 30.09 in 10.0 mi NNW 15.0 mph - N/A Rain Light Rain
1:49 AM 44.6 °F 38.1 °F 44.6 °F 100% 30.09 in 10.0 mi NW 13.8 mph - N/A Rain Light Rain
1:55 AM 44.1 °F 38.6 °F 43.7 °F 99% 30.09 in 10.0 mi NW 10.4 mph - 0.03 in Rain Light Rain
2:01 AM 44.6 °F 38.1 °F 44.6 °F 100% 30.09 in 10.0 mi NW 13.8 mph - N/A Rain Light Rain
2:10 AM 44.6 °F 38.1 °F 42.8 °F 93% 30.09 in 10.0 mi NW 13.8 mph - N/A Rain Light Rain
2:18 AM 44.6 °F 38.8 °F 42.8 °F 93% 30.09 in 10.0 mi NW 11.5 mph - N/A Rain Light Rain
2:19 AM 44.6 °F 38.8 °F 42.8 °F 93% 30.09 in 10.0 mi NW 11.5 mph - N/A   Overcast
2:20 AM 44.6 °F 38.4 °F 42.8 °F 93% 30.09 in 10.0 mi NW 12.7 mph - N/A   Overcast
2:33 AM 42.8 °F 35.8 °F 42.8 °F 100% 30.10 in 10.0 mi NW 13.8 mph - N/A   Overcast
2:43 AM 42.8 °F 35.8 °F 42.8 °F 100% 30.09 in 10.0 mi NW 13.8 mph 19.6 mph N/A Rain Light Rain
2:55 AM 43.0 °F 35.7 °F 42.8 °F 99% 30.10 in 10.0 mi NW 15.0 mph - 0.00 in Rain Light Rain
2:58 AM 42.8 °F 36.2 °F 42.8 °F 100% 30.10 in 10.0 mi NW 12.7 mph - N/A   Overcast
2:59 AM 42.8 °F 36.2 °F 42.8 °F 100% 30.10 in 10.0 mi NW 12.7 mph - N/A   Overcast
3:20 AM 42.8 °F 37.5 °F 42.8 °F 100% 30.10 in 10.0 mi NW 9.2 mph - N/A   Overcast
3:30 AM 42.8 °F 36.2 °F 42.8 °F 100% 30.10 in 10.0 mi NW 12.7 mph 19.6 mph N/A   Overcast
3:55 AM 42.3 °F 36.3 °F 42.1 °F 99% 30.11 in 10.0 mi NW 10.4 mph 19.6 mph 0.00 in   Overcast
4:12 AM 42.8 °F 36.2 °F 41.0 °F 93% 30.11 in 10.0 mi NW 12.7 mph 20.7 mph N/A   Overcast
4:53 AM 41.0 °F 33.1 °F 41.0 °F 100% 30.11 in 10.0 mi NW 15.0 mph 21.9 mph N/A   Overcast
4:55 AM 41.9 °F 33.7 °F 41.0 °F 97% 30.11 in 10.0 mi NW 17.3 mph 23.0 mph N/A   Overcast
4:58 AM 42.8 °F 35.8 °F 41.0 °F 93% 30.12 in 10.0 mi NW 13.8 mph 23.0 mph N/A   Overcast
5:00 AM 42.8 °F 36.6 °F 41.0 °F 93% 30.12 in 10.0 mi NW 11.5 mph 23.0 mph N/A   Overcast
5:06 AM 41.0 °F 32.5 °F 41.0 °F 100% 30.12 in 10.0 mi NW 17.3 mph 23.0 mph N/A   Overcast
5:46 AM 41.0 °F 33.9 °F 41.0 °F 100% 30.14 in 10.0 mi NW 12.7 mph 20.7 mph N/A   Overcast
5:55 AM 41.4 °F 34.3 °F 40.1 °F 95% 30.15 in 10.0 mi NW 12.7 mph 19.6 mph N/A   Overcast
6:29 AM 41.0 °F 33.9 °F 39.2 °F 93% 30.16 in 10.0 mi NW 12.7 mph - N/A   Overcast
6:46 AM 41.0 °F 33.9 °F 39.2 °F 93% 30.17 in 10.0 mi NW 12.7 mph 20.7 mph N/A   Overcast
7:34 AM 41.0 °F 32.5 °F 39.2 °F 93% 30.21 in 10.0 mi NW 17.3 mph 25.3 mph N/A   Overcast
7:35 AM 41.0 °F 32.5 °F 39.2 °F 93% 30.21 in 10.0 mi NW 17.3 mph 25.3 mph N/A   Overcast
7:36 AM 41.0 °F 33.5 °F 39.2 °F 93% 30.21 in 10.0 mi NW 13.8 mph 24.2 mph N/A   Overcast
7:55 AM 41.7 °F 38.0 °F 37.2 °F 84% 30.22 in 10.0 mi NW 5.8 mph 18.4 mph N/A   Overcast
8:16 AM 42.8 °F 35.8 °F 37.4 °F 81% 30.22 in 10.0 mi NW 13.8 mph 19.6 mph N/A   Scattered Clouds
8:41 AM 42.8 °F 35.1 °F 37.4 °F 81% 30.25 in 10.0 mi NW 16.1 mph 23.0 mph N/A   Mostly Cloudy
8:55 AM 42.3 °F 34.8 °F 37.6 °F 83% 30.25 in 7.0 mi NW 15.0 mph 23.0 mph N/A Rain Light Rain
9:12 AM 42.8 °F 35.8 °F 39.2 °F 87% 30.24 in 10.0 mi NW 13.8 mph 20.7 mph N/A   Mostly Cloudy
9:19 AM 44.6 °F 39.7 °F 39.2 °F 81% 30.25 in 10.0 mi NW 9.2 mph 18.4 mph N/A   Mostly Cloudy
9:48 AM 44.6 °F 37.4 °F 37.4 °F 76% 30.25 in 10.0 mi NW 16.1 mph 21.9 mph N/A   Mostly Cloudy
9:55 AM 44.6 °F 37.8 °F 37.4 °F 76% 30.25 in 10.0 mi NNW 15.0 mph 23.0 mph N/A   Mostly Cloudy
10:05 AM 46.4 °F 39.8 °F 37.4 °F 71% 30.25 in 10.0 mi NW 16.1 mph - N/A   Scattered Clouds
10:23 AM 44.6 °F 36.9 °F 35.6 °F 71% 30.23 in 10.0 mi North 18.4 mph 23.0 mph N/A   Mostly Cloudy
10:55 AM 45.1 °F 38.8 °F 34.7 °F 67% 30.24 in 10.0 mi NNW 13.8 mph - N/A   Scattered Clouds
11:55 AM 46.0 °F 39.9 °F 34.5 °F 64% 30.22 in 10.0 mi NNW 13.8 mph - 0.00 in   Scattered Clouds
12:55 PM 48.0 °F - 34.0 °F 58% 30.22 in 10.0 mi NW 11.5 mph - N/A   Partly Cloudy
1:55 PM 47.7 °F - 33.6 °F 58% 30.21 in 10.0 mi WNW 10.4 mph 17.3 mph N/A   Scattered Clouds
2:55 PM 45.1 °F 38.1 °F 33.8 °F 65% 30.23 in 10.0 mi NNW 16.1 mph 23.0 mph N/A   Mostly Cloudy
3:49 PM 42.8 °F 35.8 °F 33.8 °F 70% 30.25 in 10.0 mi NW 13.8 mph - N/A   Overcast
3:55 PM 43.0 °F 36.0 °F 33.3 °F 69% 30.25 in 10.0 mi NW 13.8 mph - N/A   Overcast
4:55 PM 40.8 °F 33.3 °F 31.8 °F 70% 30.27 in 10.0 mi North 13.8 mph - N/A   Mostly Cloudy
5:55 PM 40.6 °F 33.4 °F 32.0 °F 71% 30.29 in 10.0 mi North 12.7 mph - N/A   Overcast
6:55 PM 40.5 °F 33.2 °F 32.2 °F 72% 30.30 in 10.0 mi North 12.7 mph - N/A   Mostly Cloudy
7:34 PM 41.0 °F 33.9 °F 32.0 °F 70% 30.31 in 10.0 mi North 12.7 mph - N/A   Scattered Clouds
7:46 PM 41.0 °F 33.5 °F 32.0 °F 70% 30.32 in 10.0 mi North 13.8 mph 20.7 mph N/A   Mostly Cloudy
7:55 PM 40.5 °F 32.5 °F 32.5 °F 73% 30.32 in 10.0 mi North 15.0 mph - N/A   Scattered Clouds
8:00 PM 41.0 °F 34.3 °F 32.0 °F 70% 30.32 in 10.0 mi North 11.5 mph - N/A   Mostly Cloudy
8:55 PM 40.6 °F 32.7 °F 32.5 °F 73% 30.33 in 10.0 mi North 15.0 mph 20.7 mph N/A   Overcast
9:55 PM 39.6 °F 31.0 °F 31.1 °F 72% 30.33 in 10.0 mi North 16.1 mph - N/A   Overcast
10:34 PM 39.2 °F 30.8 °F 30.2 °F 70% 30.33 in 10.0 mi North 15.0 mph - N/A   Scattered Clouds
10:55 PM 38.8 °F 30.8 °F 31.5 °F 75% 30.32 in 10.0 mi NNE 13.8 mph 20.7 mph N/A   Partly Cloudy
11:55 PM 38.5 °F 32.1 °F 31.3 °F 75% 30.32 in 10.0 mi NNE 9.2 mph - N/A   Partly Cloudy